Terminal Aerodrome Forecast
Issued by NWS

Home | Current Version | Previous Version | Text Only | Print | Product List | Glossary On
Versions: 1 2 3 4 5 6 7 8 9 10 11 12 13 14 15 16 17 18 19 20 21 22 23 24 25 26 27 28 29 30 31 32 33 34 35 36 37 38 39 40 41 42
000
FTUS45 KBOU 042324
TAFBJC
TAF
KBJC 042324Z 0500/0524 32006KT P6SM VCTS SCT090CB BKN140
     FM050100 32007KT P6SM SCT090 BKN140
     FM050400 27007KT P6SM FEW090 SCT140
     FM051100 VRB05KT P6SM SCT140 BKN200
     FM051800 12008KT P6SM SCT090 BKN140
     FM052100 25010KT P6SM SCT090 BKN140 PROB30 0522/0524 VRB20G30KT
      -TSRA BKN080CB=

USA.gov is the U.S. government's official web portal to all federal, state and local government web resources and services.